Location: Bavegemberg
(50.9500°N, 3.8833°E)
Time: 14:25:26
(UTC+00:00)

IDEFIX/ARIANE 42P - Pass Details

Date: 23 May 2024
Orbit: 783 x 799 km, 98.5° (Epoch: 16 June)

Event Time Altitude Azimuth Distance (km) Brightness Sun altitude
Rises 01:17:01 0° 17° (NNE) 3,318 7.6 -15.4°
Reaches altitude 10° 01:19:25 10° 22° (NNE) 2,384 6.5 -15.2°
Maximum altitude 01:24:36 57° 101° (E) 943 3.0 -14.9°
Enters shadow 01:28:31 17° 176° (S) 1,903 4.0 -14.6°
